Lid_Strength_Index
4 4 4 4 4 4 4 4 3 3 3 3 3 2 2 1 1 4 6 4 2 -0 -0 4 5 4 3 6 7 6 11 13 12 11 10 8 9 8 7 7 7 6 6 4 3
5 5 5 5 5 4 4 4 3 3 3 3 3 3 2 1 4 6 2 0 0 0 4 6 6 5 6 6 7 10 11 11 9 9 9 8 8 9 8 8 9 8 5 3 4
6 5 5 5 4 4 4 4 4 4 3 3 3 3 2 2 6 6 2 2 1 0 3 3 3 5 8 7 8 8 11 9 8 7 7 8 8 7 9 10 8 8 6 4 5
5 5 5 5 4 4 4 4 4 4 3 3 3 2 1 5 13 6 2 1 1 -0 2 3 5 8 9 10 6 11 8 7 8 7 8 8 8 9 8 8 6 5 5 4 5
5 5 5 5 5 4 4 4 4 4 3 3 3 2 5 9 9 5 1 2 2 1 3 4 6 7 10 9 8 9 9 7 7 8 8 7 8 9 9 8 5 5 5 5 5
5 5 5 5 5 5 4 4 4 4 3 3 2 2 6 10 4 3 3 2 2 2 3 3 6 5 8 8 9 8 8 7 7 7 8 8 9 9 8 6 6 6 6 5 5
5 6 6 5 5 5 5 5 4 4 3 3 2 3 7 9 4 3 2 3 1 2 4 3 3 6 6 9 6 8 10 9 9 8 9 8 10 10 7 6 7 7 6 5 5
6 6 6 5 5 5 5 4 4 3 3 3 2 4 10 4 3 3 3 3 0 1 2 2 2 5 7 6 8 11 10 14 10 8 8 9 13 9 7 7 8 7 6 6 5
6 6 6 6 5 5 5 4 3 3 3 3 5 8 10 4 6 4 3 4 3 2 2 2 3 7 7 11 13 12 16 14 12 8 9 11 12 10 7 7 8 7 7 6 6
6 6 6 6 5 5 4 5 4 5 5 4 5 11 8 9 6 4 3 3 4 4 5 6 7 10 10 12 18 16 15 14 14 11 10 11 12 10 10 8 8 8 7 6 6
6 6 6 6 5 5 7 10 12 13 10 12 11 10 9 6 4 5 3 4 4 6 10 8 11 14 12 11 11 12 13 14 12 10 11 11 11 10 10 10 9 8 7 7 6
6 6 6 6 6 5 9 12 12 10 14 9 9 8 7 6 8 7 3 7 8 12 9 11 14 10 9 10 11 12 14 14 11 10 11 12 12 10 10 11 9 8 7 7 6
7 6 6 6 6 9 11 11 8 7 13 11 9 9 8 7 9 8 6 6 9 11 11 13 11 9 10 11 12 12 14 14 14 11 11 12 13 12 12 12 11 11 12 11 9
7 6 6 6 10 11 12 9 8 7 20 16 12 10 8 8 10 6 5 6 9 11 11 12 9 10 11 12 11 15 12 13 13 14 17 13 19 16 14 15 14 13 13 12 11
7 6 6 7 12 12 10 9 9 11 28 15 12 8 8 10 9 9 5 7 11 10 12 14 12 12 13 12 10 13 11 12 13 14 15 16 17 16 14 16 15 15 14 13 12
7 7 7 9 11 10 9 9 11 21 26 17 13 13 13 11 10 8 9 6 6 10 11 12 10 11 12 10 10 10 11 12 13 14 19 16 17 17 17 16 15 14 14 13 12
7 7 8 9 12 9 9 12 23 26 18 19 17 14 14 14 12 10 11 11 12 15 15 12 12 11 10 12 11 12 14 20 20 20 20 15 17 17 15 14 15 14 13 13 12
7 7 8 9 9 9 12 19 28 25 22 15 15 14 16 14 14 12 12 13 10 12 14 16 18 12 10 13 14 13 15 21 24 22 19 15 18 16 12 13 13 13 13 12 11
7 10 10 9 9 10 16 25 25 22 17 16 15 18 21 13 14 14 14 14 11 10 15 16 16 11 10 10 12 14 16 13 18 21 20 18 17 14 13 13 12 12 11 12 11
11 12 11 9 9 12 19 21 21 16 15 16 19 17 21 19 16 16 15 13 12 10 8 12 17 11 10 10 10 13 12 18 19 25 23 19 19 18 15 14 13 13 12 12 11
12 15 11 9 11 16 22 21 18 15 15 17 19 18 17 17 18 16 15 13 12 11 9 11 12 13 11 13 14 13 14 14 15 17 19 21 19 14 13 13 13 12 12 12 11
13 21 11 10 19 20 21 20 16 16 15 15 16 16 17 16 17 18 16 14 10 9 12 10 12 16 16 11 10 11 13 13 18 18 16 16 18 12 12 12 12 12 11 11 11
17 17 10 12 23 20 20 20 17 16 16 16 16 15 14 16 19 16 14 12 11 11 11 10 14 20 18 13 12 13 12 12 13 14 17 19 18 12 11 12 11 11 11 10 10
16 19 16 15 16 19 21 21 21 16 16 15 15 15 16 17 16 16 15 13 12 11 8 9 13 16 20 16 13 15 13 12 13 17 16 16 16 13 11 12 11 11 11 10 10
17 19 17 19 18 18 18 19 20 19 17 16 16 16 16 19 17 17 16 14 12 11 12 12 20 16 15 14 13 14 13 13 15 14 16 15 15 12 10 12 12 11 10 10 10
16 17 16 18 17 17 17 19 19 18 18 18 19 16 16 18 17 18 16 16 15 14 14 13 22 17 19 15 15 15 14 14 14 13 13 13 13 10 11 12 13 11 10 10 10
13 13 15 16 18 18 19 18 18 17 16 16 16 16 17 15 14 14 13 13 14 15 15 16 21 25 25 18 20 23 18 15 14 13 12 15 12 11 13 12 11 11 10 10 10